RA64535 USTR-UNWW

Flight info

Callsign RA64535
Flight time N/A
Altitude 35000
Route N0440F350 NAPOR T448 RUBOR A300 ML A308 EB G122 BEGIL R241 OGNOR
Aircraft T204/M-VGDW/C

Departure

Time 2026-04-26 11:30
Airport Roshchino International Airport (USTR)

Arrival

Time N/A
Airport Spichenkovo Airport (UNWW)
Time Latitude Longitude Altitude Speed Heading
2026-04-26 11:15 57.18191 65.34542 386 ft 0 kts 42°
2026-04-26 11:22 57.18188 65.34537 386 ft 2 kts 42°
2026-04-26 11:22 57.18173 65.34512 386 ft 2 kts 42°
2026-04-26 11:22 57.18166 65.34499 386 ft 0 kts 42°
2026-04-26 11:23 57.18154 65.34487 386 ft 2 kts 11°
2026-04-26 11:23 57.18140 65.34489 386 ft 2 kts 338°
2026-04-26 11:23 57.18132 65.34499 386 ft 0 kts 313°
2026-04-26 11:23 57.18130 65.34504 386 ft 0 kts 314°
2026-04-26 11:25 57.18137 65.34489 386 ft 5 kts 314°
2026-04-26 11:25 57.18186 65.34402 386 ft 14 kts 315°
2026-04-26 11:26 57.18241 65.34303 386 ft 19 kts 317°
2026-04-26 11:26 57.18390 65.34021 386 ft 26 kts 314°
2026-04-26 11:26 57.18481 65.33850 386 ft 30 kts 313°
2026-04-26 11:26 57.18621 65.33492 386 ft 20 kts 272°
2026-04-26 11:27 57.18583 65.33292 386 ft 15 kts 230°
2026-04-26 11:27 57.18516 65.33166 386 ft 13 kts 228°
2026-04-26 11:27 57.18486 65.33076 386 ft 11 kts 252°
2026-04-26 11:27 57.18478 65.32937 386 ft 9 kts 268°
2026-04-26 11:28 57.18475 65.32813 386 ft 10 kts 267°
2026-04-26 11:28 57.18472 65.32559 386 ft 19 kts 269°
2026-04-26 11:28 57.18467 65.32375 386 ft 23 kts 266°
2026-04-26 11:28 57.18526 65.32084 386 ft 28 kts 316°
2026-04-26 11:29 57.18671 65.31840 386 ft 24 kts 321°
2026-04-26 11:29 57.18656 65.31617 386 ft 10 kts 226°
2026-04-26 11:29 57.18600 65.31506 386 ft 39 kts 228°
2026-04-26 11:29 57.17968 65.30226 393 ft 159 kts 228°
2026-04-26 11:30 57.17419 65.29180 606 ft 180 kts 225°
2026-04-26 11:30 57.16452 65.27491 1072 ft 202 kts 226°
2026-04-26 11:30 57.15090 65.25222 2181 ft 202 kts 226°
2026-04-26 11:30 57.14521 65.23825 2613 ft 208 kts 254°
2026-04-26 11:31 57.14674 65.21360 3669 ft 204 kts 298°
2026-04-26 11:31 57.15780 65.19778 4652 ft 214 kts 340°
2026-04-26 11:31 57.17710 65.20497 5810 ft 236 kts 33°
2026-04-26 11:31 57.18709 65.23055 6311 ft 267 kts 69°
2026-04-26 11:32 57.18838 65.26617 6806 ft 291 kts 95°
2026-04-26 11:32 57.18580 65.30341 7706 ft 295 kts 97°
2026-04-26 11:32 57.18383 65.32814 8255 ft 299 kts 97°
2026-04-26 11:32 57.17973 65.37851 9430 ft 304 kts 97°
2026-04-26 11:33 57.17760 65.40440 10004 ft 307 kts 97°
2026-04-26 11:33 57.17442 65.44300 10818 ft 312 kts 97°
2026-04-26 11:33 57.17120 65.48241 11687 ft 314 kts 98°
2026-04-26 11:33 57.16796 65.52213 12502 ft 318 kts 98°
2026-04-26 11:34 57.16352 65.57616 13568 ft 323 kts 98°
2026-04-26 11:34 57.16125 65.60355 14082 ft 326 kts 98°
2026-04-26 11:34 57.15784 65.64459 14853 ft 330 kts 98°
2026-04-26 11:34 57.15310 65.70054 15839 ft 335 kts 99°
2026-04-26 11:35 57.15074 65.72819 16339 ft 337 kts 99°
2026-04-26 11:35 57.14701 65.77123 17052 ft 341 kts 99°
2026-04-26 11:35 57.14200 65.82882 17992 ft 345 kts 99°
2026-04-26 11:35 57.13949 65.85751 18446 ft 348 kts 99°
2026-04-26 11:36 57.13565 65.90153 19106 ft 352 kts 99°
2026-04-26 11:36 57.13174 65.94613 19709 ft 356 kts 99°
2026-04-26 11:36 57.12778 65.99116 20258 ft 361 kts 99°
2026-04-26 11:36 57.12373 66.03694 20812 ft 365 kts 99°
2026-04-26 11:37 57.11967 66.08254 21345 ft 369 kts 99°
2026-04-26 11:37 57.11544 66.12914 21850 ft 373 kts 100°
2026-04-26 11:37 57.11052 66.19273 22503 ft 379 kts 97°
2026-04-26 11:37 57.10717 66.24040 22959 ft 383 kts 97°
2026-04-26 11:38 57.10493 66.27257 23286 ft 384 kts 97°
2026-04-26 11:38 57.10148 66.32150 23761 ft 387 kts 98°
2026-04-26 11:38 57.09680 66.38670 24343 ft 392 kts 98°
2026-04-26 11:38 57.09320 66.43631 24818 ft 393 kts 98°
2026-04-26 11:39 57.08958 66.48582 25245 ft 395 kts 99°
2026-04-26 11:39 57.08713 66.51949 25505 ft 396 kts 99°
2026-04-26 11:39 57.08232 66.58589 26014 ft 398 kts 99°
2026-04-26 11:39 57.07868 66.63631 26444 ft 397 kts 99°
2026-04-26 11:40 57.07627 66.66994 26726 ft 397 kts 100°
2026-04-26 11:40 57.07271 66.71939 27138 ft 396 kts 100°
2026-04-26 11:40 57.06918 66.76927 27554 ft 394 kts 100°
2026-04-26 11:40 57.06566 66.81908 27927 ft 393 kts 100°
2026-04-26 11:41 57.06103 66.88464 28428 ft 391 kts 101°
2026-04-26 11:42 57.02739 67.22458 30670 ft 387 kts 105°
2026-04-26 11:43 57.02384 67.25687 30857 ft 387 kts 105°
2026-04-26 11:43 57.01859 67.30487 31170 ft 386 kts 105°
2026-04-26 11:43 57.01333 67.35302 31424 ft 386 kts 105°
2026-04-26 11:43 57.00637 67.41721 31794 ft 385 kts 105°
2026-04-26 11:44 57.00290 67.44926 31975 ft 385 kts 105°
2026-04-26 11:44 56.99775 67.49691 32238 ft 384 kts 105°
2026-04-26 11:44 56.99258 67.54481 32448 ft 385 kts 105°
2026-04-26 11:44 56.98577 67.60854 32764 ft 384 kts 105°
2026-04-26 11:45 56.98233 67.64068 32910 ft 384 kts 105°
2026-04-26 11:45 56.97726 67.68831 33127 ft 384 kts 106°
2026-04-26 11:45 56.97216 67.73664 33290 ft 386 kts 106°
2026-04-26 11:45 56.96605 67.80227 33285 ft 397 kts 104°
2026-04-26 11:46 56.95889 67.88584 33301 ft 408 kts 104°
2026-04-26 11:46 56.94987 67.99015 33331 ft 420 kts 104°
2026-04-26 11:47 56.94055 68.09680 33364 ft 431 kts 103°
2026-04-26 11:47 56.92927 68.22430 33437 ft 441 kts 103°
2026-04-26 11:48 56.92099 68.31661 33489 ft 448 kts 103°
2026-04-26 11:48 56.90911 68.44810 33543 ft 456 kts 103°
2026-04-26 11:49 56.90039 68.54413 33569 ft 462 kts 103°
2026-04-26 11:49 56.88783 68.68000 33604 ft 469 kts 104°
2026-04-26 11:50 56.87862 68.77860 33626 ft 474 kts 104°
2026-04-26 11:50 56.86738 68.89776 33681 ft 478 kts 104°
2026-04-26 11:51 56.85598 69.01755 33910 ft 478 kts 104°
2026-04-26 11:51 56.84455 69.13616 34102 ft 478 kts 104°
2026-04-26 11:52 56.83875 69.19576 34241 ft 477 kts 104°
2026-04-26 11:52 56.83292 69.25533 34336 ft 477 kts 104°
2026-04-26 11:52 56.82510 69.33461 34492 ft 476 kts 104°
2026-04-26 11:52 56.82124 69.37380 34570 ft 476 kts 104°
2026-04-26 11:53 56.81534 69.43345 34678 ft 476 kts 104°
2026-04-26 11:53 56.80940 69.49269 34748 ft 480 kts 104°
2026-04-26 11:54 56.79138 69.67127 34736 ft 474 kts 105°
2026-04-26 11:54 56.77927 69.78931 34730 ft 480 kts 105°
2026-04-26 11:55 56.76686 69.90912 34719 ft 480 kts 105°
2026-04-26 11:55 56.75439 70.02815 34711 ft 480 kts 105°
2026-04-26 11:56 56.74176 70.14701 34709 ft 479 kts 105°
2026-04-26 11:56 56.72871 70.26485 34709 ft 477 kts 107°
2026-04-26 11:57 56.71275 70.38155 34719 ft 476 kts 109°
2026-04-26 11:57 56.69569 70.49713 34722 ft 475 kts 110°
2026-04-26 11:58 56.67839 70.61279 34730 ft 475 kts 110°
2026-04-26 11:58 56.66130 70.72759 34733 ft 473 kts 111°
2026-04-26 11:59 56.64420 70.84272 34723 ft 472 kts 111°
2026-04-26 11:59 56.62723 70.95765 34718 ft 473 kts 111°
2026-04-26 12:00 56.61031 71.07313 34713 ft 474 kts 110°
2026-04-26 12:00 56.59364 71.18772 34710 ft 473 kts 110°
2026-04-26 12:01 56.57687 71.30330 34711 ft 473 kts 110°
2026-04-26 12:01 56.56038 71.41825 34705 ft 474 kts 110°
2026-04-26 12:02 56.54399 71.53291 34703 ft 472 kts 110°
2026-04-26 12:02 56.52763 71.64789 34710 ft 472 kts 110°
2026-04-26 12:03 56.51134 71.76379 34704 ft 472 kts 110°
2026-04-26 12:03 56.49529 71.87856 34694 ft 472 kts 110°
2026-04-26 12:04 56.47943 71.99249 34699 ft 472 kts 110°
2026-04-26 12:04 56.46355 72.10764 34701 ft 471 kts 110°
2026-04-26 12:05 56.44792 72.22169 34712 ft 470 kts 110°
2026-04-26 12:05 56.43239 72.33592 34695 ft 469 kts 110°
2026-04-26 12:06 56.41689 72.45031 34677 ft 470 kts 110°
2026-04-26 12:06 56.40147 72.56488 34682 ft 471 kts 110°
2026-04-26 12:07 56.38636 72.67807 34683 ft 466 kts 111°
2026-04-26 12:07 56.37122 72.79170 34680 ft 468 kts 111°
2026-04-26 12:08 56.35630 72.90498 34693 ft 466 kts 111°
2026-04-26 12:08 56.34161 73.01795 34693 ft 464 kts 112°
2026-04-26 12:09 56.32687 73.13070 34698 ft 464 kts 111°
2026-04-26 12:09 56.31225 73.24406 34678 ft 466 kts 111°
2026-04-26 12:10 56.29777 73.35682 34686 ft 464 kts 111°
2026-04-26 12:10 56.28336 73.47019 34672 ft 465 kts 111°
2026-04-26 12:11 56.26916 73.58285 34683 ft 464 kts 111°
2026-04-26 12:11 56.25503 73.69536 34680 ft 465 kts 112°
2026-04-26 12:12 56.23859 73.82775 34668 ft 466 kts 112°
2026-04-26 12:12 56.22687 73.92265 34685 ft 466 kts 111°
2026-04-26 12:13 56.21691 74.03842 34675 ft 469 kts 108°
2026-04-26 12:13 56.20615 74.15358 34660 ft 470 kts 109°
2026-04-26 12:14 56.19461 74.26877 34663 ft 468 kts 110°
2026-04-26 12:14 56.18296 74.38339 34663 ft 472 kts 109°
2026-04-26 12:15 56.17133 74.49830 34663 ft 472 kts 109°
2026-04-26 12:15 56.15969 74.61388 34660 ft 472 kts 109°
2026-04-26 12:16 56.14829 74.72958 34647 ft 473 kts 110°
2026-04-26 12:16 56.13687 74.84533 34685 ft 473 kts 110°
2026-04-26 12:17 56.12561 74.96104 34640 ft 476 kts 110°
2026-04-26 12:17 56.11433 75.07792 34639 ft 478 kts 110°
2026-04-26 12:18 56.10323 75.19427 34621 ft 473 kts 110°
2026-04-26 12:18 56.09208 75.31055 34585 ft 481 kts 109°
2026-04-26 12:19 56.08107 75.42813 34596 ft 481 kts 109°
2026-04-26 12:19 56.07017 75.54588 34581 ft 481 kts 109°
2026-04-26 12:20 56.05928 75.66423 34575 ft 481 kts 109°
2026-04-26 12:20 56.04885 75.77960 34579 ft 481 kts 109°
2026-04-26 12:21 56.03821 75.89780 34581 ft 485 kts 109°
2026-04-26 12:21 56.02764 76.01645 34547 ft 484 kts 108°
2026-04-26 12:22 56.01722 76.13530 34541 ft 488 kts 108°
2026-04-26 12:22 56.00684 76.25463 34536 ft 488 kts 108°
2026-04-26 12:23 55.99663 76.37331 34524 ft 487 kts 108°
2026-04-26 12:23 55.98640 76.49268 34524 ft 491 kts 107°
2026-04-26 12:24 55.97633 76.61262 34530 ft 489 kts 107°
2026-04-26 12:24 55.96643 76.73188 34527 ft 489 kts 107°
2026-04-26 12:25 55.95174 76.91154 34502 ft 488 kts 107°
2026-04-26 12:25 55.94047 77.05124 34507 ft 491 kts 106°
2026-04-26 12:26 55.93256 77.15063 34515 ft 487 kts 106°
2026-04-26 12:26 55.92320 77.27036 34525 ft 487 kts 106°
2026-04-26 12:27 55.91383 77.38984 34523 ft 491 kts 105°
2026-04-26 12:27 55.90463 77.50969 34527 ft 489 kts 105°
2026-04-26 12:28 55.89566 77.62871 34558 ft 488 kts 105°
2026-04-26 12:28 55.88673 77.74841 34561 ft 486 kts 105°
2026-04-26 12:29 55.87785 77.86803 34544 ft 488 kts 105°
2026-04-26 12:30 55.85988 78.04428 34563 ft 483 kts 110°
2026-04-26 12:30 55.84495 78.16067 34561 ft 482 kts 110°
2026-04-26 12:31 55.82280 78.33393 34574 ft 482 kts 110°
2026-04-26 12:31 55.80809 78.45052 34580 ft 483 kts 110°
2026-04-26 12:32 55.79366 78.56570 34592 ft 483 kts 109°
2026-04-26 12:33 55.77207 78.73951 34599 ft 482 kts 110°
2026-04-26 12:33 55.75776 78.85564 34609 ft 481 kts 110°
2026-04-26 12:34 55.74371 78.97102 34616 ft 483 kts 109°
2026-04-26 12:34 55.72954 79.08740 34624 ft 483 kts 109°
2026-04-26 12:35 55.71555 79.20358 34620 ft 485 kts 109°
2026-04-26 12:35 55.70168 79.31999 34620 ft 484 kts 109°
2026-04-26 12:36 55.68786 79.43600 34629 ft 487 kts 108°
2026-04-26 12:36 55.67415 79.55338 34634 ft 486 kts 108°
2026-04-26 12:37 55.66055 79.67005 34646 ft 487 kts 108°
2026-04-26 12:37 55.64703 79.78754 34652 ft 486 kts 108°
2026-04-26 12:38 55.63370 79.90415 34662 ft 487 kts 108°
2026-04-26 12:38 55.61851 80.02001 34670 ft 486 kts 110°
2026-04-26 12:39 55.60256 80.13576 34676 ft 484 kts 110°
2026-04-26 12:39 55.58670 80.25107 34676 ft 485 kts 109°
2026-04-26 12:40 55.57099 80.36635 34682 ft 486 kts 109°
2026-04-26 12:40 55.55521 80.48229 34702 ft 487 kts 109°
2026-04-26 12:41 55.53961 80.59841 34697 ft 486 kts 108°
2026-04-26 12:41 55.52405 80.71480 34695 ft 488 kts 109°
2026-04-26 12:42 55.50870 80.83077 34700 ft 486 kts 109°
2026-04-26 12:42 55.49347 80.94623 34710 ft 486 kts 108°
2026-04-26 12:43 55.47828 81.06224 34726 ft 487 kts 108°
2026-04-26 12:43 55.46294 81.17834 34730 ft 486 kts 109°
2026-04-26 12:44 55.44569 81.29349 34732 ft 486 kts 110°
2026-04-26 12:44 55.42833 81.40792 34743 ft 486 kts 110°
2026-04-26 12:45 55.41108 81.52195 34753 ft 487 kts 109°
2026-04-26 12:45 55.39388 81.63622 34758 ft 488 kts 109°
2026-04-26 12:46 55.37657 81.75176 34759 ft 487 kts 109°
2026-04-26 12:46 55.35949 81.86669 34767 ft 487 kts 109°
2026-04-26 12:47 55.34256 81.98137 34772 ft 487 kts 109°
2026-04-26 12:47 55.32572 82.09602 34770 ft 487 kts 108°
2026-04-26 12:48 55.30911 82.21023 34778 ft 487 kts 108°
2026-04-26 12:48 55.29237 82.32522 34782 ft 485 kts 110°
2026-04-26 12:48 55.27990 82.37855 34740 ft 476 kts 124°
2026-04-26 12:49 55.26154 82.42627 34830 ft 470 kts 130°
2026-04-26 12:49 55.22149 82.51638 34784 ft 467 kts 135°
2026-04-26 12:50 55.17905 82.60104 34806 ft 467 kts 136°
2026-04-26 12:50 55.13547 82.68541 34812 ft 466 kts 137°
2026-04-26 12:51 55.09197 82.76910 34816 ft 466 kts 137°
2026-04-26 12:51 55.04851 82.85272 34820 ft 467 kts 137°
2026-04-26 12:52 55.00517 82.93602 34826 ft 467 kts 137°
2026-04-26 12:52 54.96203 83.01919 34825 ft 465 kts 137°
2026-04-26 12:53 54.91937 83.10421 34824 ft 471 kts 131°
2026-04-26 12:53 54.88127 83.19683 34839 ft 472 kts 130°
2026-04-26 12:54 54.84280 83.28957 34851 ft 473 kts 130°
2026-04-26 12:54 54.80455 83.38100 34860 ft 473 kts 130°
2026-04-26 12:55 54.76601 83.47295 34874 ft 474 kts 129°
2026-04-26 12:55 54.72739 83.56527 34886 ft 476 kts 129°
2026-04-26 12:56 54.68872 83.65803 34882 ft 476 kts 130°
2026-04-26 12:56 54.65021 83.75043 34881 ft 476 kts 130°
2026-04-26 12:57 54.61189 83.84250 34898 ft 476 kts 129°
2026-04-26 12:57 54.57322 83.93561 34904 ft 477 kts 129°
2026-04-26 12:58 54.51781 84.07752 34918 ft 482 kts 123°
2026-04-26 12:58 54.48864 84.18080 34921 ft 486 kts 111°
2026-04-26 12:59 54.46600 84.28957 34916 ft 488 kts 112°
2026-04-26 12:59 54.44279 84.39881 34927 ft 487 kts 112°
2026-04-26 13:00 54.41941 84.50736 34934 ft 488 kts 112°
2026-04-26 13:00 54.39594 84.61659 34941 ft 489 kts 111°
2026-04-26 13:01 54.37251 84.72604 34934 ft 489 kts 112°
2026-04-26 13:01 54.34924 84.83512 34940 ft 489 kts 112°
2026-04-26 13:02 54.32591 84.94497 34949 ft 491 kts 111°
2026-04-26 13:02 54.30278 85.05437 34956 ft 491 kts 111°
2026-04-26 13:03 54.27985 85.16325 34959 ft 490 kts 110°
2026-04-26 13:03 54.25694 85.27222 34972 ft 491 kts 110°
2026-04-26 13:04 54.23397 85.38202 34988 ft 488 kts 111°
2026-04-26 13:04 54.20574 85.48633 35001 ft 489 kts 116°
2026-04-26 13:05 54.17614 85.59032 35005 ft 490 kts 116°
2026-04-26 13:05 54.14666 85.69488 35000 ft 490 kts 116°
2026-04-26 13:06 54.11738 85.79932 35005 ft 488 kts 116°
2026-04-26 13:06 54.08816 85.90376 35002 ft 489 kts 116°
2026-04-26 13:07 54.05931 86.00718 35001 ft 488 kts 115°
2026-04-26 13:07 54.03025 86.11164 35001 ft 488 kts 115°
2026-04-26 13:08 54.01017 86.22055 35031 ft 486 kts 96°
2026-04-26 13:08 54.00272 86.33486 35000 ft 486 kts 93°
2026-04-26 13:09 53.99740 86.44834 35007 ft 486 kts 92°
2026-04-26 13:09 53.99234 86.56310 35005 ft 484 kts 92°
2026-04-26 13:10 53.98728 86.67610 35001 ft 485 kts 92°
2026-04-26 13:10 53.98210 86.78991 34995 ft 484 kts 92°
2026-04-26 13:11 53.97683 86.90382 34998 ft 483 kts 92°
2026-04-26 13:11 53.96642 87.01568 34906 ft 487 kts 113°
2026-04-26 13:12 53.94767 87.06269 34992 ft 486 kts 134°
2026-04-26 13:12 53.92099 87.09702 34987 ft 484 kts 154°
2026-04-26 13:12 53.88935 87.11443 34990 ft 477 kts 174°
2026-04-26 13:12 53.85664 87.11300 34988 ft 468 kts 195°
2026-04-26 13:13 53.82694 87.09349 34982 ft 455 kts 216°
2026-04-26 13:13 53.80374 87.05878 34987 ft 442 kts 236°
2026-04-26 13:13 53.78860 87.01530 35049 ft 435 kts 247°
2026-04-26 13:13 53.77504 86.96896 35033 ft 436 kts 248°
2026-04-26 13:14 53.74490 86.88145 34972 ft 443 kts 232°
2026-04-26 13:14 53.70301 86.80648 34933 ft 435 kts 245°
2026-04-26 13:15 53.68583 86.76375 35031 ft 443 kts 229°
2026-04-26 13:15 53.66003 86.73445 34998 ft 456 kts 207°
2026-04-26 13:15 53.62906 86.72222 35021 ft 469 kts 187°
2026-04-26 13:15 53.59692 86.72855 35019 ft 478 kts 166°
2026-04-26 13:16 53.53318 86.75942 34921 ft 472 kts 185°
2026-04-26 13:16 53.50203 86.74949 35029 ft 460 kts 205°
2026-04-26 13:16 53.47477 86.72285 34992 ft 449 kts 225°
2026-04-26 13:17 53.44170 86.63863 35073 ft 437 kts 244°
2026-04-26 13:17 53.42131 86.59978 34922 ft 450 kts 220°
2026-04-26 13:18 53.36095 86.57143 35000 ft 473 kts 179°
2026-04-26 13:18 53.32901 86.58466 35038 ft 481 kts 160°
2026-04-26 13:18 53.26495 86.60408 34970 ft 466 kts 194°
2026-04-26 13:19 53.23518 86.58637 35018 ft 456 kts 214°
2026-04-26 13:19 53.21130 86.55353 34988 ft 443 kts 235°
2026-04-26 13:19 53.19559 86.51075 35061 ft 435 kts 247°
2026-04-26 13:19 53.18035 86.46711 35005 ft 443 kts 234°
2026-04-26 13:20 53.15589 86.43508 34985 ft 455 kts 211°
2026-04-26 13:20 53.12567 86.41964 35040 ft 467 kts 191°
2026-04-26 13:20 53.09312 86.42226 35007 ft 476 kts 170°
2026-04-26 13:21 53.02969 86.45345 34923 ft 474 kts 182°
2026-04-26 13:21 52.99806 86.44552 35039 ft 461 kts 202°
2026-04-26 13:21 52.97030 86.42112 34994 ft 451 kts 223°
2026-04-26 13:21 52.94982 86.38277 34998 ft 438 kts 243°
2026-04-26 13:22 52.93577 86.33833 35080 ft 436 kts 245°
2026-04-26 13:22 52.91690 86.29870 34947 ft 450 kts 223°
2026-04-26 13:22 52.88938 86.27374 35025 ft 461 kts 202°
2026-04-26 13:22 52.85813 86.26566 35003 ft 473 kts 182°
2026-04-26 13:23 52.82516 86.27634 35011 ft 480 kts 161°
2026-04-26 13:23 52.76106 86.29923 34938 ft 469 kts 191°
2026-04-26 13:23 52.73036 86.28353 35027 ft 458 kts 211°
2026-04-26 13:24 52.70556 86.25294 34966 ft 446 kts 231°
2026-04-26 13:24 52.68865 86.21061 35035 ft 436 kts 246°
2026-04-26 13:24 52.67431 86.16724 35029 ft 442 kts 238°
2026-04-26 13:24 52.65122 86.13291 34947 ft 455 kts 214°
2026-04-26 13:25 52.62137 86.11471 35035 ft 466 kts 194°
2026-04-26 13:25 52.58885 86.11422 34993 ft 476 kts 173°
2026-04-26 13:25 52.55744 86.13124 35054 ft 481 kts 158°
2026-04-26 13:25 52.52576 86.14623 34928 ft 478 kts 177°
2026-04-26 13:26 52.49339 86.14156 35004 ft 464 kts 199°
2026-04-26 13:26 52.46441 86.11976 34998 ft 455 kts 218°
2026-04-26 13:26 52.44252 86.08400 34973 ft 442 kts 239°
2026-04-26 13:26 52.42792 86.04036 35077 ft 437 kts 247°
2026-04-26 13:27 52.41096 85.99900 34947 ft 449 kts 228°
2026-04-26 13:27 52.38496 85.97113 35009 ft 459 kts 206°
2026-04-26 13:27 52.35352 85.95931 35015 ft 472 kts 186°
2026-04-26 13:27 52.32084 85.96592 35008 ft 480 kts 165°
2026-04-26 13:28 52.28980 85.98580 35062 ft 481 kts 163°
2026-04-26 13:28 52.25730 85.99347 34910 ft 473 kts 186°
2026-04-26 13:28 52.22582 85.98184 35042 ft 461 kts 206°
2026-04-26 13:28 52.19914 85.95453 34966 ft 450 kts 226°
2026-04-26 13:29 52.18046 85.91461 35009 ft 438 kts 245°
2026-04-26 13:29 52.14617 85.83368 34913 ft 453 kts 219°
2026-04-26 13:29 52.11783 85.81159 35024 ft 463 kts 199°
2026-04-26 13:30 52.08559 85.80629 34992 ft 475 kts 178°
2026-04-26 13:30 52.05341 85.81937 35030 ft 482 kts 159°
2026-04-26 13:30 52.02201 85.83750 34985 ft 480 kts 172°
2026-04-26 13:30 51.98929 85.83759 34953 ft 469 kts 194°
2026-04-26 13:31 51.95928 85.81997 35013 ft 458 kts 214°
2026-04-26 13:31 51.93512 85.78735 34989 ft 446 kts 234°
2026-04-26 13:31 51.91925 85.74516 35073 ft 439 kts 247°
2026-04-26 13:31 51.90417 85.70258 35022 ft 446 kts 235°
2026-04-26 13:32 51.87979 85.67043 34983 ft 457 kts 212°
2026-04-26 13:32 51.84925 85.65455 35069 ft 470 kts 191°
2026-04-26 13:32 51.81668 85.65626 35045 ft 479 kts 171°
2026-04-26 13:32 51.78524 85.67440 35108 ft 481 kts 159°
2026-04-26 13:33 51.75301 85.68699 34960 ft 476 kts 181°
2026-04-26 13:33 51.72086 85.67993 35089 ft 463 kts 202°
2026-04-26 13:33 51.69256 85.65657 35061 ft 454 kts 221°
2026-04-26 13:33 51.67162 85.61974 35063 ft 440 kts 242°
2026-04-26 13:34 51.65733 85.57637 35177 ft 439 kts 247°
2026-04-26 13:34 51.63952 85.53657 35014 ft 452 kts 226°
2026-04-26 13:34 51.61232 85.51025 35101 ft 461 kts 205°
2026-04-26 13:34 51.59165 85.50185 35119 ft 468 kts 191°
2026-04-26 13:35 51.54825 85.50884 35122 ft 481 kts 163°
2026-04-26 13:35 51.48445 85.53348 35026 ft 472 kts 189°
2026-04-26 13:35 51.45340 85.52009 35161 ft 462 kts 209°
2026-04-26 13:36 51.42753 85.49177 35100 ft 452 kts 229°
2026-04-26 13:36 51.40958 85.45148 35159 ft 440 kts 246°
2026-04-26 13:36 51.39538 85.40811 35172 ft 443 kts 242°
2026-04-26 13:36 51.37367 85.37309 35096 ft 455 kts 217°
2026-04-26 13:37 51.34448 85.35304 35178 ft 465 kts 197°
2026-04-26 13:37 51.31182 85.34999 35148 ft 476 kts 175°
2026-04-26 13:37 51.27962 85.36491 35198 ft 483 kts 158°
2026-04-26 13:37 51.24821 85.38095 35127 ft 478 kts 174°
2026-04-26 13:38 51.21565 85.37843 35158 ft 467 kts 196°
2026-04-26 13:38 51.18613 85.35897 35166 ft 457 kts 216°
2026-04-26 13:38 51.16315 85.32536 35143 ft 445 kts 237°
2026-04-26 13:38 51.14791 85.28305 35250 ft 440 kts 246°
2026-04-26 13:39 51.13191 85.24132 35139 ft 449 kts 231°
2026-04-26 13:39 51.10702 85.21197 35157 ft 458 kts 209°
2026-04-26 13:39 51.07629 85.19801 35209 ft 470 kts 189°
2026-04-26 13:39 51.04351 85.20155 35172 ft 477 kts 167°
2026-04-26 13:40 51.01228 85.22033 35262 ft 478 kts 160°
2026-04-26 13:40 50.98025 85.23048 35102 ft 475 kts 182°
2026-04-26 13:40 50.94801 85.22150 35241 ft 464 kts 203°
2026-04-26 13:40 50.92027 85.19681 35182 ft 455 kts 223°
2026-04-26 13:41 50.90035 85.15964 35208 ft 443 kts 243°
2026-04-26 13:41 50.86710 85.07828 35126 ft 453 kts 223°
2026-04-26 13:41 50.83922 85.05402 35216 ft 462 kts 201°
2026-04-26 13:42 50.80765 85.04626 35200 ft 471 kts 181°
2026-04-26 13:42 50.77518 85.05635 35214 ft 479 kts 161°
2026-04-26 13:42 50.74421 85.07510 35227 ft 480 kts 167°
2026-04-26 13:42 50.71134 85.07820 35140 ft 469 kts 191°
2026-04-26 13:43 50.68064 85.06339 35237 ft 461 kts 210°
2026-04-26 13:43 50.65541 85.03406 35169 ft 452 kts 231°
2026-04-26 13:43 50.63815 84.99351 35245 ft 441 kts 246°
2026-04-26 13:44 50.60090 84.91763 35143 ft 458 kts 215°
2026-04-26 13:44 50.57118 84.89922 35242 ft 469 kts 194°
2026-04-26 13:44 50.53863 84.89754 35203 ft 477 kts 174°
2026-04-26 13:44 50.50680 84.91312 35255 ft 480 kts 158°
2026-04-26 13:45 50.47534 84.92840 35147 ft 478 kts 175°
2026-04-26 13:45 50.44283 84.92509 35215 ft 466 kts 197°
2026-04-26 13:45 50.41366 84.90546 35222 ft 458 kts 217°
2026-04-26 13:45 50.39088 84.87196 35203 ft 447 kts 238°
2026-04-26 13:46 50.37571 84.83014 35296 ft 441 kts 247°
2026-04-26 13:46 50.35923 84.78927 35175 ft 451 kts 231°
2026-04-26 13:46 50.33374 84.76099 35211 ft 459 kts 208°
2026-04-26 13:46 50.30271 84.74815 35246 ft 470 kts 188°
2026-04-26 13:47 50.27024 84.75263 35234 ft 478 kts 167°
2026-04-26 13:47 50.20668 84.78085 35143 ft 473 kts 184°
2026-04-26 13:47 50.17490 84.77152 35275 ft 464 kts 204°
2026-04-26 13:48 50.14728 84.74667 35212 ft 454 kts 224°
2026-04-26 13:48 50.12776 84.70986 35249 ft 443 kts 244°
2026-04-26 13:48 50.11354 84.66753 35321 ft 442 kts 245°
2026-04-26 13:48 50.09412 84.63060 35157 ft 455 kts 222°
2026-04-26 13:49 50.06591 84.60737 35249 ft 464 kts 201°
2026-04-26 13:49 50.03370 84.60043 35216 ft 473 kts 180°
2026-04-26 13:49 50.00154 84.61108 35222 ft 480 kts 160°
2026-04-26 13:50 49.93781 84.63216 35160 ft 470 kts 191°
2026-04-26 13:50 49.90712 84.61734 35243 ft 461 kts 211°
2026-04-26 13:50 49.88197 84.58813 35181 ft 450 kts 231°
2026-04-26 13:50 49.86497 84.54840 35248 ft 440 kts 246°
2026-04-26 13:51 49.85038 84.50624 35241 ft 445 kts 240°
2026-04-26 13:51 49.82812 84.47302 35147 ft 457 kts 216°
2026-04-26 13:51 49.79857 84.45438 35232 ft 467 kts 196°
2026-04-26 13:51 49.76580 84.45230 35197 ft 476 kts 175°
2026-04-26 13:52 49.73434 84.46711 35239 ft 480 kts 159°
2026-04-26 13:52 49.70233 84.48222 35249 ft 478 kts 176°
2026-04-26 13:52 49.66979 84.47905 35177 ft 466 kts 198°
2026-04-26 13:52 49.64088 84.45952 35270 ft 457 kts 217°
2026-04-26 13:53 49.61814 84.42656 35150 ft 446 kts 238°
2026-04-26 13:53 49.60312 84.38562 35307 ft 439 kts 247°
2026-04-26 13:53 49.58732 84.34557 35091 ft 449 kts 231°
2026-04-26 13:53 49.56176 84.31652 35206 ft 459 kts 209°
2026-04-26 13:54 49.53092 84.30290 35219 ft 470 kts 189°
2026-04-26 13:54 49.49834 84.30631 35217 ft 477 kts 168°
2026-04-26 13:54 49.46692 84.32443 35281 ft 480 kts 161°
2026-04-26 13:55 49.40295 84.32499 35250 ft 462 kts 204°
2026-04-26 13:55 49.38370 84.31020 35229 ft 458 kts 217°
2026-04-26 13:55 49.34142 84.22286 35257 ft 441 kts 246°
2026-04-26 13:56 49.32267 84.18528 35102 ft 454 kts 224°
2026-04-26 13:56 49.29527 84.16138 35219 ft 463 kts 202°
2026-04-26 13:56 49.26348 84.15290 35162 ft 474 kts 182°
2026-04-26 13:56 49.23088 84.16184 35183 ft 480 kts 161°
2026-04-26 13:57 49.19976 84.18005 35198 ft 480 kts 167°
2026-04-26 13:57 49.16728 84.18334 35111 ft 471 kts 190°
2026-04-26 13:57 49.13625 84.16927 35236 ft 462 kts 209°
2026-04-26 13:57 49.11056 84.14072 35156 ft 452 kts 230°
2026-04-26 13:58 49.09338 84.10201 35257 ft 442 kts 246°
2026-04-26 13:58 49.05683 84.02700 35111 ft 457 kts 216°
2026-04-26 13:58 49.02764 84.00804 35207 ft 468 kts 197°
2026-04-26 13:59 48.99513 84.00507 35145 ft 476 kts 175°
2026-04-26 13:59 48.96320 84.01915 35211 ft 480 kts 158°
2026-04-26 13:59 48.93164 84.03439 35101 ft 479 kts 175°
2026-04-26 14:00 48.84706 83.98233 35138 ft 447 kts 236°
2026-04-26 14:00 48.83157 83.94236 35243 ft 442 kts 246°
2026-04-26 14:01 48.79139 83.87281 35143 ft 460 kts 211°
2026-04-26 14:01 48.76062 83.85811 35177 ft 470 kts 191°
2026-04-26 14:01 48.72766 83.86029 35154 ft 478 kts 169°
2026-04-26 14:02 48.66380 83.88802 35026 ft 477 kts 182°
2026-04-26 14:02 48.63190 83.88012 35208 ft 467 kts 202°
2026-04-26 14:02 48.60392 83.85747 35096 ft 457 kts 223°
2026-04-26 14:02 48.58326 83.82200 35150 ft 445 kts 242°
2026-04-26 14:03 48.56889 83.78104 35222 ft 442 kts 246°
2026-04-26 14:03 48.55078 83.74322 35019 ft 454 kts 225°
2026-04-26 14:03 48.52384 83.71880 35167 ft 463 kts 205°
2026-04-26 14:03 48.49205 83.70921 35114 ft 474 kts 184°
2026-04-26 14:04 48.45937 83.71683 35143 ft 480 kts 163°
2026-04-26 14:04 48.39559 83.74390 35117 ft 478 kts 169°
2026-04-26 14:04 48.36504 83.76374 35111 ft 485 kts 147°
2026-04-26 14:05 48.34081 83.79828 35156 ft 486 kts 126°
2026-04-26 14:05 48.32541 83.84288 35121 ft 483 kts 105°
2026-04-26 14:05 48.32095 83.89196 35140 ft 474 kts 84°
2026-04-26 14:05 48.32785 83.93997 35140 ft 461 kts 63°
2026-04-26 14:06 48.34465 83.97943 35137 ft 449 kts 42°
2026-04-26 14:06 48.36921 84.00674 35150 ft 438 kts 21°
2026-04-26 14:06 48.39776 84.02052 35206 ft 431 kts 10°
2026-04-26 14:07 48.45608 84.04095 35127 ft 431 kts
2026-04-26 14:07 48.51456 84.06079 35139 ft 432 kts
2026-04-26 14:08 48.57296 84.08065 35152 ft 432 kts
2026-04-26 14:08 48.63165 84.10065 35161 ft 432 kts
2026-04-26 14:09 48.69035 84.12066 35170 ft 433 kts
2026-04-26 14:09 48.74889 84.14066 35172 ft 434 kts
2026-04-26 14:10 48.80739 84.16073 35183 ft 434 kts
2026-04-26 14:10 48.86598 84.18093 35197 ft 434 kts
2026-04-26 14:11 48.95448 84.21142 35221 ft 435 kts
2026-04-26 14:11 49.01313 84.23170 35216 ft 436 kts
2026-04-26 14:12 49.07198 84.25216 35230 ft 435 kts
2026-04-26 14:12 49.13119 84.27280 35210 ft 436 kts
2026-04-26 14:13 49.21932 84.30366 35198 ft 436 kts
2026-04-26 14:14 49.27853 84.32436 35193 ft 436 kts
2026-04-26 14:14 49.33757 84.34512 35198 ft 436 kts
2026-04-26 14:15 49.39655 84.36586 35200 ft 437 kts
2026-04-26 14:15 49.45554 84.38674 35207 ft 437 kts
2026-04-26 14:16 49.51479 84.40776 35218 ft 437 kts
2026-04-26 14:16 49.57386 84.42878 35210 ft 438 kts
2026-04-26 14:17 49.63320 84.44992 35205 ft 438 kts
2026-04-26 14:17 49.69208 84.47093 35207 ft 438 kts
2026-04-26 14:18 49.75135 84.49212 35205 ft 439 kts
2026-04-26 14:18 49.81064 84.51336 35204 ft 438 kts
2026-04-26 14:19 49.86985 84.53466 35214 ft 438 kts
2026-04-26 14:19 49.92907 84.55607 35205 ft 438 kts
2026-04-26 14:20 49.98845 84.57760 35209 ft 439 kts
2026-04-26 14:20 50.04804 84.59924 35206 ft 439 kts
2026-04-26 14:21 50.10717 84.62076 35219 ft 438 kts
2026-04-26 14:21 50.16664 84.64242 35255 ft 440 kts
2026-04-26 14:22 50.22595 84.66408 35111 ft 439 kts
2026-04-26 14:22 50.25570 84.67500 35276 ft 439 kts
2026-04-26 14:22 50.28567 84.68601 35245 ft 441 kts
2026-04-26 14:23 50.34497 84.70781 35234 ft 441 kts
2026-04-26 14:23 50.40441 84.72972 35219 ft 441 kts 10°
2026-04-26 14:24 50.46418 84.75183 35210 ft 441 kts
2026-04-26 14:24 50.52396 84.77401 35206 ft 441 kts
2026-04-26 14:25 50.58347 84.79610 35194 ft 443 kts 10°
2026-04-26 14:25 50.64324 84.81843 35190 ft 443 kts
2026-04-26 14:26 50.70308 84.84079 35193 ft 442 kts 10°
2026-04-26 14:26 50.76281 84.86319 35190 ft 443 kts 10°
2026-04-26 14:27 50.82276 84.88573 35179 ft 442 kts 10°
2026-04-26 14:27 50.88247 84.90824 35177 ft 443 kts 10°
2026-04-26 14:28 50.94198 84.93075 35180 ft 443 kts 10°
2026-04-26 14:28 51.00203 84.95349 35171 ft 445 kts 10°
2026-04-26 14:29 51.06210 84.97636 35167 ft 445 kts 10°
2026-04-26 14:29 51.12202 84.99927 35174 ft 444 kts 10°
2026-04-26 14:30 51.18227 85.02235 35175 ft 444 kts 10°
2026-04-26 14:30 51.24192 85.04527 35172 ft 445 kts
2026-04-26 14:31 51.30209 85.06844 35162 ft 445 kts 10°
2026-04-26 14:31 51.36189 85.09156 35157 ft 445 kts
2026-04-26 14:32 51.42189 85.11485 35136 ft 445 kts
2026-04-26 14:32 51.48199 85.13823 35135 ft 445 kts
2026-04-26 14:33 51.54219 85.16170 35128 ft 445 kts
2026-04-26 14:33 51.60194 85.18501 35106 ft 446 kts
2026-04-26 14:34 51.66233 85.20867 35100 ft 445 kts
2026-04-26 14:34 51.72199 85.23216 35082 ft 445 kts
2026-04-26 14:35 51.78202 85.25583 35057 ft 446 kts
2026-04-26 14:35 51.84230 85.27975 35039 ft 448 kts
2026-04-26 14:36 51.90261 85.30366 35019 ft 448 kts
2026-04-26 14:36 51.96291 85.32766 35016 ft 447 kts
2026-04-26 14:37 52.02303 85.35162 35010 ft 445 kts
2026-04-26 14:37 52.08318 85.37567 35015 ft 447 kts
2026-04-26 14:38 52.14338 85.39982 35013 ft 447 kts
2026-04-26 14:38 52.20365 85.42415 35010 ft 448 kts
2026-04-26 14:39 52.26398 85.44849 35008 ft 448 kts
2026-04-26 14:39 52.32435 85.47298 35004 ft 448 kts
2026-04-26 14:40 52.38469 85.49759 35002 ft 447 kts
2026-04-26 14:40 52.44487 85.52212 35002 ft 447 kts
2026-04-26 14:41 52.50502 85.54668 35000 ft 449 kts
2026-04-26 14:41 52.56531 85.57142 35004 ft 449 kts
2026-04-26 14:42 52.62577 85.59629 34999 ft 448 kts
2026-04-26 14:42 52.68605 85.62125 35003 ft 449 kts
2026-04-26 14:43 52.74641 85.64628 35003 ft 448 kts
2026-04-26 14:43 52.80677 85.67139 34994 ft 449 kts 10°
2026-04-26 14:44 52.86707 85.69649 34991 ft 451 kts 10°
2026-04-26 14:44 52.92766 85.72188 34992 ft 451 kts 10°
2026-04-26 14:45 52.98833 85.74743 34990 ft 451 kts 10°
2026-04-26 14:45 53.04890 85.77296 34985 ft 451 kts 10°
2026-04-26 14:46 53.10957 85.79856 34988 ft 450 kts 10°
2026-04-26 14:46 53.16978 85.82416 34988 ft 451 kts 10°
2026-04-26 14:47 53.23060 85.85005 34990 ft 450 kts 10°
2026-04-26 14:47 53.29100 85.87593 34987 ft 452 kts 10°
2026-04-26 14:48 53.35191 85.90206 34986 ft 452 kts 10°
2026-04-26 14:48 53.41244 85.92819 34982 ft 447 kts
2026-04-26 14:48 53.44190 85.94051 34963 ft 427 kts 10°
2026-04-26 14:49 53.46969 85.95274 34944 ft 398 kts
2026-04-26 14:49 53.49564 85.96406 34911 ft 374 kts
2026-04-26 14:49 53.52005 85.97482 34908 ft 351 kts
2026-04-26 14:49 53.54286 85.98486 34918 ft 330 kts
2026-04-26 14:50 53.56431 85.99442 34927 ft 310 kts
2026-04-26 14:50 53.58443 86.00343 34945 ft 290 kts
2026-04-26 14:50 53.60326 86.01186 34920 ft 273 kts
2026-04-26 14:50 53.62091 86.01976 34929 ft 252 kts
2026-04-26 14:51 53.63722 86.02707 34873 ft 235 kts
2026-04-26 14:51 53.65281 86.03398 34518 ft 232 kts
2026-04-26 14:51 53.66842 86.04059 33786 ft 241 kts
2026-04-26 14:51 53.68457 86.04706 33336 ft 236 kts
2026-04-26 14:52 53.70019 86.05321 33048 ft 227 kts
2026-04-26 14:52 53.71563 86.05914 32494 ft 231 kts
2026-04-26 14:52 53.73128 86.06491 31962 ft 231 kts
2026-04-26 14:52 53.74677 86.07048 31637 ft 224 kts
2026-04-26 14:53 53.76189 86.07584 31158 ft 224 kts
2026-04-26 14:53 53.77716 86.08108 30624 ft 226 kts
2026-04-26 14:53 53.79243 86.08619 30250 ft 222 kts
2026-04-26 14:53 53.80732 86.09113 29848 ft 220 kts
2026-04-26 14:54 53.82250 86.09603 29319 ft 224 kts
2026-04-26 14:54 53.83774 86.10078 28911 ft 222 kts
2026-04-26 14:54 53.85263 86.10536 28574 ft 217 kts
2026-04-26 14:54 53.86745 86.10997 28102 ft 220 kts
2026-04-26 14:55 53.88247 86.11462 27645 ft 220 kts
2026-04-26 14:55 53.89738 86.11917 27290 ft 217 kts
2026-04-26 14:55 53.91193 86.12360 26891 ft 216 kts
2026-04-26 14:55 53.92681 86.12807 26448 ft 217 kts
2026-04-26 14:56 53.94163 86.13248 26057 ft 216 kts
2026-04-26 14:56 53.95627 86.13680 25685 ft 214 kts
2026-04-26 14:56 53.97084 86.14103 25257 ft 215 kts
2026-04-26 14:56 53.98554 86.14519 24860 ft 214 kts
2026-04-26 14:57 54.00010 86.14919 24485 ft 212 kts
2026-04-26 14:57 54.01452 86.15305 24094 ft 211 kts
2026-04-26 14:57 54.02899 86.15675 23674 ft 212 kts
2026-04-26 14:57 54.04363 86.16037 23275 ft 212 kts
2026-04-26 14:58 54.05803 86.16382 22905 ft 210 kts
2026-04-26 14:58 54.07251 86.16720 22533 ft 209 kts
2026-04-26 14:58 54.08667 86.17042 22157 ft 208 kts
2026-04-26 14:58 54.10102 86.17359 21765 ft 208 kts
2026-04-26 14:59 54.11533 86.17673 21420 ft 206 kts
2026-04-26 14:59 54.12947 86.17982 21036 ft 206 kts
2026-04-26 14:59 54.14368 86.18285 20627 ft 207 kts
2026-04-26 14:59 54.15316 86.18486 20419 ft 205 kts